This is the latest recevied weather packets stored in our database for station/object KA9CBS. If no packets are shown the sender has not sent any weather packets the latest 10 day(s).
| Time | Temp. | Humidity | Pressure | Rain* | Wind** | Luminosity | Snow |
|---|---|---|---|---|---|---|---|
| 1777995236 | 11.11° C | 97% | 1010.1 hPa | 0 mm | - | 62 W/m² | - |
| 1777994932 | 11.11° C | 97% | 1010.2 hPa | 0 mm | - | 88 W/m² | - |
| 1777994629 | 11.11° C | 97% | 1010.1 hPa | 0 mm | - | 77 W/m² | - |
| 1777994324 | 10.56° C | 97% | 1010.2 hPa | 0 mm | - | 72 W/m² | - |
| 1777994020 | 10.56° C | 97% | 1009.9 hPa | 0 mm | - | 80 W/m² | - |
| 1777993712 | 10.56° C | 97% | 1010 hPa | 0 mm | - | 73 W/m² | - |
| 1777993409 | 10.56° C | 97% | 1009.4 hPa | 0 mm | - | 57 W/m² | - |
| 1777993103 | 10.56° C | 97% | 1009.2 hPa | 0 mm | - | 51 W/m² | - |
| 1777992802 | 11.11° C | 98% | 1009 hPa | 0 mm | - | 61 W/m² | - |
| 1777992499 | 11.11° C | 98% | 1009.2 hPa | 0 mm | - | 99 W/m² | - |
| 1777992198 | 11.11° C | 98% | 1009.5 hPa | 0 mm | - | 88 W/m² | - |
| 1777991894 | 11.11° C | 98% | 1009.9 hPa | 0 mm | - | 67 W/m² | - |
| 1777991592 | 11.11° C | 98% | 1010.1 hPa | 0 mm | - | 33 W/m² | - |
| 1777991288 | 11.67° C | 98% | 1010.3 hPa | 0 mm | - | 24 W/m² | - |
| 1777990986 | 12.22° C | 97% | 1010.4 hPa | 0 mm | - | 17 W/m² | - |
| 1777990683 | 12.78° C | 97% | 1010 hPa | 1.78 mm | - | 19 W/m² | - |
| 1777990380 | 14.44° C | 96% | 1010.1 hPa | 1.27 mm | - | 10 W/m² | - |
| 1777990076 | 14.44° C | 97% | 1009.8 hPa | 4.32 mm | - | 16 W/m² | - |
| 1777989773 | 14.44° C | 96% | 1010 hPa | 7.87 mm | - | 17 W/m² | - |
| 1777989470 | 15° C | 96% | 1010.1 hPa | 7.87 mm | - | 7 W/m² | - |
| 1777989166 | 15° C | 96% | 1010.2 hPa | 7.87 mm | - | 16 W/m² | - |
| 1777988862 | 15° C | 95% | 1010.1 hPa | 8.89 mm | - | 13 W/m² | - |
| 1777988559 | 15° C | 94% | 1010.1 hPa | 8.89 mm | - | 9 W/m² | - |
| 1777988256 | 15° C | 93% | 1010.1 hPa | 7.87 mm | - | 8 W/m² | - |
| 1777987952 | 15° C | 92% | 1010.1 hPa | 4.83 mm | - | 9 W/m² | - |
* Rain latest hour (hover to see other rain measurements)
** Current wind speed in m/s (hover to see current wind gust speed)